STARLINK-1260, 45404

Orbit data source: Space-Track

STARLINK-1260, 45404 is a payload satellite owned by SpaceX/Seattle (US) in LEO that was launched on Wed, 18 Mar 2020 UTC via an FALCON 9 launch vehicle from the Air Force Eastern Test Range (AFETR). Payload-class satellites include a variety of spacecraft equipped with specific instruments for various scientific and technological missions. These include communications satellites like Starlink; space stations such as the ISS; scientific satellites like the Hubble; Earth observation satellites from companies like Planet Labs, Umbra, and HawkEye 360; GPS; miniature CubeSats for education and research; and military/defense satellites.

Loading next visibility...
Identifier
45404, 2020-019AW
Orbit
LEO
Country
Flag of USUS
Related business
Manufacturer
SpaceX/Seattle
Mission
Partially operational Commercial Communications
Bus & Motor
STARLINK, Unknown motor
Mass
260 kg wet, ~248 kg dry
Launch date (UTC)
2020-03-18 (6 years ago)
Launch vehicle
FALCON 9
Launch site
Air Force Eastern Test Range (AFETR)
Object type
Payload
Rocket body
Debris
Shape & HBR
Box + 1 Pan, 10.1 m
Radar Cross Section
13.562 m², Large (>1 m²)

Expand to show TLE details & history
Last TLE update: 3 hours ago

TLE from 3 hours ago
0 STARLINK-1260
1 45404U 20019AW  26126.66668981  .00080213  00000-0  23104-2 0  9992
2 45404  53.1556 219.0938 0004634 340.7026 282.6588 15.35059977  5886
Epoch: 2026-05-06T16:00Z
TLE epoch observation values (Epoch: 2026-05-06T16:00:01.999Z)
Latitude
-52.79342°
Longitude
13.5185°
Altitude
478.391 km
Speed
7.627 km/s
True Right ascension
07h 52m 12s
True Declination
-52° 37' 15"
Sunlit
Object was in daylight at epoch
Visualization orbit readout
Latitude
Unknown
Longitude
Unknown
Altitude
Unknown
Speed
Unknown
Apparent Right ascension
Unknown
Apparent Declination
Unknown
Sunlit
N/A
Visualization observer readout
Local Sidereal Time
02:47:52
Azimuth
Unknown
Elevation
Unknown
Doppler factor
Unknown
Orbital elements
Apogee altitude
464.169 km
Perigee altitude
457.831 km
Semi-major axis
6,839.137 km
Eccentricity
0.00046
Inclination
53.1556°
RAAN
219.0938°
Arg. of periapsis
340.7026°
True anomaly
282.60698°
Mean anomaly
282.6588°
Eccentric anomaly
282.63289°
Mean motion
3.83744 °/min
Orbital period
93.81 mins
BSTAR
0.0023104
Loading maneuver chart data...
Computing Atmospheric mass density...

Documentation

Showing up to 5 results
|